When you browse on this site, cookies collect data to enhance your experience and personalize the content and advertising you see.
Visit our Privacy Policy to learn more. By continuing to use the site, you agree to this use of cookies and data.

Hourly Weather Marbella

Today, 7 July, Tuesday

Time Temperature Precipitation Wind Pressure Humidity
00:00 +26°C° 0 mm 1 mps 755 mmHg 45%
01:00 +26°C° 0 mm 1 mps 755 mmHg 43%
02:00 +26°C° 0 mm 1 mps 755 mmHg 41%
03:00 +26°C° 0 mm 1 mps 754 mmHg 40%
04:00 +25°C° 0 mm 0 mps 754 mmHg 40%
05:00 +25°C° 0 mm 0 mps 754 mmHg 39%
06:00 +25°C° 0 mm 0 mps 755 mmHg 39%
07:00 +30°C° 0 mm 1 mps 755 mmHg 35%
08:00 +32°C° 0 mm 1 mps 754 mmHg 31%
09:00 +35°C° 0 mm 2 mps 754 mmHg 27%
10:00 +37°C° 0 mm 2 mps 754 mmHg 25%
11:00 +38°C° 0 mm 2 mps 754 mmHg 23%
12:00 +40°C° 0 mm 2 mps 755 mmHg 21%
13:00 +40°C° 0 mm 2 mps 754 mmHg 20%
14:00 +40°C° 0 mm 2 mps 754 mmHg 19%
15:00 +41°C° 0 mm 1 mps 754 mmHg 19%
16:00 +40°C° 0 mm 1 mps 753 mmHg 20%
17:00 +39°C° 0 mm 1 mps 753 mmHg 22%
18:00 +37°C° 0 mm 1 mps 753 mmHg 24%
19:00 +35°C° 0 mm 1 mps 753 mmHg 27%
20:00 +33°C° 0 mm 1 mps 753 mmHg 31%
21:00 +30°C° 0 mm 1 mps 754 mmHg 34%
22:00 +30°C° 0 mm 1 mps 754 mmHg 35%
23:00 +29°C° 0 mm 1 mps 754 mmHg 35%

Tomorrow, 8 July, Wednesday

Time Temperature Precipitation Wind Pressure Humidity
00:00 +29°C° 0 mm 1 mps 754 mmHg 36%
01:00 +28°C° 0 mm 1 mps 753 mmHg 37%
02:00 +28°C° 0 mm 1 mps 753 mmHg 38%
03:00 +27°C° 0 mm 2 mps 752 mmHg 39%
04:00 +27°C° 0 mm 2 mps 753 mmHg 40%
05:00 +27°C° 0 mm 2 mps 753 mmHg 41%
06:00 +27°C° 0 mm 2 mps 753 mmHg 41%
07:00 +29°C° 0 mm 2 mps 753 mmHg 37%
08:00 +31°C° 0 mm 2 mps 753 mmHg 34%
09:00 +34°C° 0 mm 3 mps 754 mmHg 30%
10:00 +35°C° 0 mm 3 mps 754 mmHg 29%
11:00 +36°C° 0 mm 3 mps 754 mmHg 28%
12:00 +37°C° 0 mm 3 mps 754 mmHg 27%
13:00 +37°C° 0 mm 3 mps 753 mmHg 28%
14:00 +37°C° 0 mm 2 mps 753 mmHg 28%
15:00 +37°C° 0 mm 2 mps 753 mmHg 28%
16:00 +36°C° 0 mm 2 mps 753 mmHg 31%
17:00 +35°C° 0 mm 2 mps 753 mmHg 33%
18:00 +34°C° 0 mm 1 mps 753 mmHg 36%
19:00 +31°C° 0 mm 1 mps 753 mmHg 45%
20:00 +29°C° 0 mm 1 mps 754 mmHg 54%
21:00 +24°C° 0 mm 0 mps 755 mmHg 63%
22:00 +25°C° 0 mm 1 mps 755 mmHg 66%
23:00 +25°C° 0 mm 1 mps 755 mmHg 68%

Day after tomorrow, 9 July, Thursday

Time Temperature Precipitation Wind Pressure Humidity
00:00 +24°C° 0 mm 1 mps 755 mmHg 71%
01:00 +24°C° 0 mm 1 mps 755 mmHg 72%
02:00 +23°C° 0 mm 1 mps 755 mmHg 74%
03:00 +23°C° 0 mm 1 mps 755 mmHg 75%
04:00 +23°C° 0 mm 1 mps 755 mmHg 72%
05:00 +24°C° 0 mm 1 mps 755 mmHg 68%
06:00 +24°C° 0 mm 2 mps 755 mmHg 65%
07:00 +27°C° 0 mm 2 mps 755 mmHg 55%
08:00 +29°C° 0 mm 2 mps 755 mmHg 45%
09:00 +32°C° 0 mm 2 mps 756 mmHg 35%
10:00 +34°C° 0 mm 2 mps 755 mmHg 32%
11:00 +35°C° 0 mm 3 mps 755 mmHg 28%
12:00 +36°C° 0 mm 3 mps 755 mmHg 25%
13:00 +37°C° 0 mm 3 mps 755 mmHg 25%
14:00 +37°C° 0 mm 2 mps 754 mmHg 25%
15:00 +37°C° 0 mm 2 mps 754 mmHg 25%
16:00 +36°C° 0 mm 2 mps 754 mmHg 26%
17:00 +36°C° 0 mm 2 mps 753 mmHg 27%
18:00 +35°C° 0 mm 2 mps 753 mmHg 28%
19:00 +31°C° 0 mm 2 mps 754 mmHg 37%
20:00 +29°C° 0 mm 1 mps 754 mmHg 46%
21:00 +26°C° 0 mm 1 mps 755 mmHg 55%
22:00 +25°C° 0 mm 1 mps 755 mmHg 58%
23:00 +25°C° 0 mm 1 mps 755 mmHg 60%

10 July, Friday

Time Temperature Precipitation Wind Pressure Humidity
00:00 +24°C° 0 mm 1 mps 755 mmHg 63%
01:00 +24°C° 0 mm 1 mps 755 mmHg 60%
02:00 +24°C° 0 mm 1 mps 754 mmHg 57%
03:00 +24°C° 0 mm 1 mps 754 mmHg 54%
04:00 +24°C° 0 mm 1 mps 754 mmHg 51%
05:00 +25°C° 0 mm 1 mps 754 mmHg 48%
06:00 +25°C° 0 mm 1 mps 754 mmHg 45%
07:00 +27°C° 0 mm 1 mps 754 mmHg 41%
08:00 +30°C° 0 mm 1 mps 754 mmHg 37%
09:00 +32°C° 0 mm 1 mps 754 mmHg 33%
10:00 +34°C° 0 mm 2 mps 754 mmHg 34%
11:00 +35°C° 0 mm 2 mps 754 mmHg 34%
12:00 +36°C° 0 mm 3 mps 754 mmHg 34%
13:00 +36°C° 0 mm 3 mps 753 mmHg 35%
14:00 +36°C° 0 mm 3 mps 753 mmHg 37%
15:00 +36°C° 0 mm 2 mps 752 mmHg 38%
16:00 +35°C° 0 mm 2 mps 752 mmHg 41%
17:00 +34°C° 0 mm 2 mps 752 mmHg 43%
18:00 +32°C° 0 mm 2 mps 752 mmHg 46%
19:00 +30°C° 0 mm 2 mps 752 mmHg 52%
20:00 +28°C° 0 mm 2 mps 752 mmHg 58%
21:00 +26°C° 0 mm 2 mps 753 mmHg 64%
22:00 +26°C° 0 mm 2 mps 753 mmHg 64%
23:00 +26°C° 0 mm 2 mps 753 mmHg 64%

11 July, Saturday

Time Temperature Precipitation Wind Pressure Humidity
00:00 +25°C° 0 mm 3 mps 753 mmHg 65%
01:00 +25°C° 0 mm 3 mps 753 mmHg 64%
02:00 +25°C° 0 mm 3 mps 753 mmHg 64%
03:00 +25°C° 0 mm 3 mps 752 mmHg 63%
04:00 +25°C° 0 mm 3 mps 752 mmHg 62%
05:00 +26°C° 0 mm 3 mps 753 mmHg 61%
06:00 +26°C° 0 mm 2 mps 753 mmHg 59%
07:00 +27°C° 0 mm 3 mps 753 mmHg 56%
08:00 +29°C° 0 mm 4 mps 753 mmHg 53%
09:00 +32°C° 0 mm 4 mps 753 mmHg 50%
10:00 +32°C° 0 mm 4 mps 753 mmHg 48%
11:00 +33°C° 0 mm 5 mps 753 mmHg 45%
12:00 +34°C° 0 mm 5 mps 753 mmHg 43%
13:00 +34°C° 0 mm 5 mps 752 mmHg 41%
14:00 +34°C° 0 mm 4 mps 752 mmHg 40%
15:00 +35°C° 0 mm 4 mps 752 mmHg 38%
16:00 +34°C° 0 mm 4 mps 752 mmHg 42%
17:00 +33°C° 0 mm 3 mps 752 mmHg 46%
18:00 +31°C° 0 mm 3 mps 752 mmHg 50%
19:00 +29°C° 0 mm 3 mps 752 mmHg 59%
20:00 +27°C° 0 mm 3 mps 753 mmHg 68%
21:00 +25°C° 0 mm 3 mps 753 mmHg 77%
22:00 +25°C° 0 mm 3 mps 754 mmHg 79%
23:00 +25°C° 0 mm 3 mps 754 mmHg 82%

12 July, Sunday

Time Temperature Precipitation Wind Pressure Humidity
00:00 +24°C° 0 mm 3 mps 754 mmHg 84%
01:00 +24°C° 0 mm 2 mps 754 mmHg 83%
02:00 +24°C° 0 mm 2 mps 754 mmHg 81%
03:00 +24°C° 0 mm 2 mps 754 mmHg 79%
04:00 +24°C° 0 mm 2 mps 754 mmHg 77%
05:00 +24°C° 0 mm 2 mps 754 mmHg 76%
06:00 +24°C° 0 mm 1 mps 754 mmHg 74%
07:00 +26°C° 0 mm 2 mps 755 mmHg 67%
08:00 +28°C° 0 mm 2 mps 755 mmHg 60%
09:00 +30°C° 0 mm 2 mps 755 mmHg 53%
10:00 +31°C° 0 mm 2 mps 755 mmHg 51%
11:00 +33°C° 0 mm 3 mps 755 mmHg 49%
12:00 +34°C° 0 mm 3 mps 755 mmHg 47%
13:00 +34°C° 0 mm 3 mps 755 mmHg 47%
14:00 +34°C° 0 mm 3 mps 755 mmHg 46%
15:00 +34°C° 0 mm 3 mps 754 mmHg 46%
16:00 +34°C° 0 mm 2 mps 754 mmHg 47%
17:00 +32°C° 0 mm 2 mps 754 mmHg 49%
18:00 +31°C° 0 mm 1 mps 754 mmHg 51%
19:00 +29°C° 0 mm 1 mps 754 mmHg 59%
20:00 +27°C° 0 mm 1 mps 755 mmHg 68%
21:00 +25°C° 0 mm 1 mps 755 mmHg 76%
22:00 +25°C° 0 mm 1 mps 755 mmHg 76%
23:00 +25°C° 0 mm 1 mps 756 mmHg 76%
Show more